Regional Weather Roundup
Issued by NWS Sterling, VA

Home | Current Version | Previous Version | Graphics & Text | Print | Product List | Glossary On
Versions: 1 2 3 4 5 6 7 8 9 10 11 12 13 14 15 16 17 18 19 20 21 22 23 24 25 26 27 28 29 30 31 32 33 34 35 36 37 38 39 40 41 42 43 44 45 46 47 48 49 50
426
ASUS41 KLWX 221710
RWRLWX

REGIONAL WEATHER ROUNDUP
NATIONAL WEATHER SERVICE BALTIMORE MD/WASHINGTON DC
100 PM EDT FRI SEP 22 2017

Note: "FAIR" indicates few or no clouds below 12,000 feet
with no significant weather and/or obstructions to visibility.
 TC=TEMPERATURE CELSIUS

 * =Non NWS site. Station does not report precipitation (e.g. rain,
    snow, etc.), thunder, or fog.

DCZ001-MDZ009-015-VAZ040>042-051-053>054-221800-
WASHINGTON METRO

CITY           SKY/WX    TMP DP  RH WIND       PRES   REMARKS
WASHINGTON NAT CLOUDY    80  65  59 CALM      30.06F
DULLES         CLOUDY    81  64  56 VRB5      30.07F
ANDREWS AFB    CLOUDY    81  62  53 NW6       30.05F
FT BELVOIR     CLOUDY    81  64  55 NW8       30.05F
QUANTICO       CLOUDY    81  65  58 E5        30.06F
COLLEGE PARK*  PTSUNNY   79  65  60 NW5       30.05F
LEESBURG*      CLOUDY    81  66  61 N8        30.08S
MANASSAS*      CLOUDY    81  65  58 NW5       30.07F
GAITHERSBURG*  CLOUDY    78  65  63 NW3       30.08F

$$

MDZ006>007-011-014-221800-
BALTIMORE METRO

CITY           SKY/WX    TMP DP  RH WIND       PRES   REMARKS
BWI AIRPORT    CLOUDY    80  66  62 W8        30.04F
MD SCIENCE CTR   N/A     81  65  58 MISG      30.04F
MARTIN STATE   PTSUNNY   79  72  78 NW6       30.05F
ANNAPOLIS      CLOUDY    80  70  71 NW7       30.04F
FORT MEADE*    CLOUDY    79  64  61 CALM      30.07F

$$

MDZ012-015-019>023-221800-
MARYLAND EASTERN SHORE

CITY           SKY/WX    TMP DP  RH WIND       PRES   REMARKS
OCEAN CITY     CLOUDY    76  59  55 N8        30.01F
SALISBURY      CLOUDY    77  62  59 N5        30.02F
CAMBRIDGE*     SUNNY     77  63  61 NW8       30.04S
EASTON*        CLOUDY    77  66  69 NW9       30.08S

$$

MDZ017>025-221800-
SOUTHERN MARYLAND

CITY           SKY/WX    TMP DP  RH WIND       PRES   REMARKS
PATUXENT RIVER CLOUDY    81  63  54 NW7       30.04F
ST INIGOES     CLOUDY    82  65  56 VRB3      30.03F
LEONARDTOWN*   CLOUDY    79  63  57 NW5       30.06S

$$

MDZ003>005-221800-
NORTH CENTRAL MARYLAND

CITY           SKY/WX    TMP DP  RH WIND       PRES   REMARKS
FREDERICK*     SUNNY     81  64  57 CALM      30.09F
HAGERSTOWN APT MOSUNNY   83  62  49 N8        30.08F
WESTMINSTER*   CLOUDY    79  66  65 N3        30.08F

$$

MDZ501>502-221800-
WESTERN MARYLAND

CITY           SKY/WX    TMP DP  RH WIND       PRES   REMARKS
OAKLAND*       SUNNY     73  57  56 N6        30.19S
CUMBERLAND*    SUNNY     82  61  47 CALM      30.13F

$$

VAZ025>031-221800-
SHENANDOAH VALLEY

CITY           SKY/WX    TMP DP  RH WIND       PRES   REMARKS
WINCHESTER*    CLOUDY    77  63  61 CALM      30.08F
FRONT ROYAL*   PTSUNNY   79  63  57 CALM      30.08F
LURAY*         CLOUDY    81  63  54 SE3       30.10F
NEW MARKET*    CLOUDY    82  58  45 CALM      30.08F
STAUNTON*      PTSUNNY   79  60  53 CALM      30.13F
WAYNESBORO*    CLOUDY    79  64  60 CALM      30.13F

$$

WVZ021-048>050-054>055-221800-
EASTERN WEST VIRGINIA PANHANDLE

CITY           SKY/WX    TMP DP  RH WIND       PRES   REMARKS
MARTINSBURG    CLOUDY    80  62  54 VRB5      30.07F
PETERSBURG*    SUNNY     86  63  45 CALM      30.10F

$$

VAZ036>039-050-221800-
CENTRAL FOOTHILLS

CITY           SKY/WX    TMP DP  RH WIND       PRES   REMARKS
CHARLOTTESVILL CLOUDY    82  63  52 CALM      30.08F
CULPEPER*      PTSUNNY   83  65  54 N7        30.07F
ORANGE*        CLOUDY    81  64  57 CALM      30.08S
GORDONSVILLE*  CLOUDY    82  66  59 N3        30.07F
WARRENTON*     PTSUNNY   83  60  45 NW6       30.07S

$$

VAZ055>057-221800-
NORTH AND CENTRAL PIEDMONT

CITY           SKY/WX    TMP DP  RH WIND       PRES   REMARKS
FREDERICKSBRG* CLOUDY    79  64  59 CALM      30.06S
STAFFORD*      CLOUDY    81  64  57 NW5       30.10F

$$

NCZ024-NYZ072-PAZ021-071-VAZ022-071-221800-
OTHER REGIONAL OBSERVATIONS

CITY           SKY/WX    TMP DP  RH WIND       PRES   REMARKS
NEW YORK CITY  SUNNY     80  55  42 VRB6      30.01F
PHILADELPHIA   CLOUDY    77  57  50 VRB7      30.02F
PITTSBURGH     PTSUNNY   83  59  44 N9        30.14F
ROANOKE        MOSUNNY   82  66  58 CALM      30.12F
RICHMOND       CLOUDY    84  66  54 NE9       30.05F
RALEIGH        MOSUNNY   84  63  49 NE5       30.07F

$$

ANZ530>537-221800-
MARINE OBSERVATIONS

STATION/POSITION TIME  TEMP    WIND        PRES
                       AIR SEA DIR/SP/G
                 (UTC) (F)     (DEG/KT/KT) (MB)
THOMAS PT LIGHT  1700   77 76   CALM  /  2   N/A
BALT KEY BRIDGE  1642   78     320/  8/  9 1017.2F
COVE POINT       1642   74     340/  7/  9 1018.1F
LEWISETTA        1642   77 76  360/  3/  4 1017.4F
SOLOMONS ISLAND  1642   78 76  290/  4/  7 1017.0F
PINEY POINT      1642          310/  7/  7   N/A

$$





USA.gov is the U.S. government's official web portal to all federal, state and local government web resources and services.